Simultaneous Nadir Overpasses (SNOs) Predictions

Prediction of SNOs between AQUA and NOAA-19 Satellite Orbit:

Table of predicted SNOs for the next 14.0 days since TLE Epoch: 1/6/2024
Index Date (AQUA) Time (AQUA) Lat,Lon (AQUA) SZA (AQUA ) Date (NOAA-19) Time (NOAA-19) Lat,Lon (NOAA-19) SZA (NOAA-19 ) Distance(km) Time Diff (sec)
1 01/08/2024 01:05:51 -75.95, -21.98 81.71 01/08/2024 01:05:09 -75.95, -22.00 81.70 0.55 42
2 01/08/2024 01:55:16 76.00, 145.51 98.35 01/08/2024 01:56:01 76.01, 145.48 98.36 1.41 45
3 01/10/2024 05:46:38 -75.96, -92.19 81.99 01/10/2024 05:46:21 -75.97, -92.17 81.97 1.25 17
4 01/10/2024 06:36:03 76.02, 75.30 98.07 01/10/2024 06:37:13 76.02, 75.29 98.07 0.80 70
5 01/12/2024 10:27:24 -75.96,-162.34 82.32 01/12/2024 10:27:33 -75.99,-162.36 82.29 2.83 9
6 01/14/2024 14:18:46 75.92, -40.02 97.28 01/14/2024 14:17:41 75.92, -40.06 97.29 1.06 65
7 01/14/2024 15:08:10 -75.99, 127.41 82.65 01/14/2024 15:08:45 -75.99, 127.42 82.66 0.22 35
8 01/16/2024 18:59:31 75.93,-110.21 96.89 01/16/2024 18:58:53 75.92,-110.31 96.89 2.86 38
9 01/16/2024 19:48:55 -76.00, 57.23 83.04 01/16/2024 19:49:57 -75.99, 57.16 83.06 2.15 62
10 01/18/2024 23:40:16 75.97, 179.51 96.51 01/18/2024 23:40:04 75.96, 179.58 96.49 2.66 12



Historial Predications of SNOs between AQUA and NOAA-19
